Location: Christchurch
(43.5330°S, 172.6330°E)
Time: 13:51:55
(UTC+12:00)

ISS - Visible Passes

Search period start: 17 May 2021 00:00
Search period end: 27 May 2021 00:00
Orbit: 417 x 422 km, 51.6° (Epoch: 16 May)

Date Brightness Start Highest point End Pass type
(mag) Time Alt. Az. Time Alt. Az. Time Alt. Az.
21 May -1.1 06:28:24 10° N 06:31:07 22° NE 06:33:51 10° E visible
22 May -0.6 05:42:02 10° NNE 05:43:49 14° NE 05:45:38 10° E visible
23 May -3.2 06:29:22 10° NW 06:32:45 59° NE 06:36:10 10° ESE visible
24 May -2.3 05:44:15 28° N 05:45:21 36° NE 05:48:33 10° ESE visible
25 May -0.8 04:59:29 17° E 04:59:29 17° E 05:00:44 10° E visible
25 May -3.6 06:32:28 21° W 06:34:35 56° SSW 06:38:01 10° SE visible
26 May -3.6 05:47:27 69° SE 05:47:27 69° SE 05:50:33 10° ESE visible
